Kingsport, TN

2:43 AM EST on January 21, 2017 (GMT -0500)
Tri-Cities

Weather History for KTRI - February, 2015

Change the Weather History Date:

Monday, February 2, 2015

  Actual Average Record
Temperature  
Mean Temperature 38 °F 36 °F  
Max Temperature 50 °F 47 °F 71 °F (1989)
Min Temperature 26 °F 26 °F 0 °F (1971)
Degree Days  
Heating Degree Days 27 29  
Month to date heating degree days 48 58  
Since 1 July heating degree days 2683 2712  
Cooling Degree Days 0 0  
Month to date cooling degree days 0 0  
Year to date cooling degree days 0 0  
Moisture  
Dew Point 30 °F    
Average Humidity 82    
Maximum Humidity 100    
Minimum Humidity 63    
Precipitation  
Precipitation 0.28 in 0.13 in 1.22 in (1974)
Month to date precipitation 0.49 0.25  
Year to date precipitation 2.77 3.62  
Snow  
Snow T in 0.20 in - ()
Month to date snowfall T 0.3  
Since 1 July snowfall 1.5 7.7  
Snow Depth 0.00 in    
Sea Level Pressure  
Sea Level Pressure 29.84 in    
Wind  
Wind Speed 13 mph (West)    
Max Wind Speed 28 mph    
Max Gust Speed 35 mph    
Visibility 9 miles    
Events Rain , Snow    
T = Trace of Precipitation, MM = Missing Value Source: NWS Daily Summary

Daily Weather History Graph

Daily Weather History Graph

Search for Another Location

Airport or City:

Trip Planner

Search our weather history database for the weather conditions in past years. The results will help you decide how hot, cold, wet, or windy it might be!

Date:

Astronomy

Feb. 02, 2015 Rise Set
Actual Time 7:30 AM EST 5:56 PM EST
Civil Twilight 7:03 AM EST 6:23 PM EST
Nautical Twilight 6:32 AM EST 6:54 PM EST
Astronomical Twilight 6:02 AM EST 7:24 PM EST
Moon 5:06 PM EST (2/2) 6:20 AM EST (2/2)
Length of Visible Light 11h 20m
Length of Day
10h 26m
Waxing Gibbous, 99% of the Moon is Illuminated
Feb 2
Waxing Gibbous
Feb 3
Full
Feb 11
Last Quarter
Feb 18
New
Feb 25
First Quarter

Hourly Weather History & Observations

Time (EST) Temp. Windchill Dew Point Humidity Pressure Visibility Wind Dir Wind Speed Gust Speed Precip Events Conditions
12:53 AM 50.0 °F - 48.0 °F 93% 29.59 in 7.0 mi SSE 4.6 mph - 0.07 in Rain Light Rain
1:02 AM 50.0 °F - 48.9 °F 96% 29.61 in 7.0 mi Calm Calm - 0.01 in Rain Light Rain
1:53 AM 50.0 °F - 48.0 °F 93% 29.55 in 6.0 mi Calm Calm - 0.09 in Rain Light Rain
2:53 AM 48.9 °F - 48.0 °F 97% 29.54 in 10.0 mi West 6.9 mph - 0.05 in Rain Light Rain
3:22 AM 50.0 °F - 48.0 °F 93% 29.58 in 8.0 mi WSW 6.9 mph - 0.00 in Rain Light Rain
3:53 AM 48.9 °F - 48.9 °F 100% 29.54 in 10.0 mi WSW 9.2 mph - 0.01 in Rain Light Rain
4:53 AM 46.9 °F - 45.0 °F 93% 29.56 in 5.0 mi West 12.7 mph 24.2 mph 0.03 in Rain Light Rain
5:07 AM 46.9 °F - 45.0 °F 93% 29.59 in 9.0 mi West 10.4 mph - 0.00 in Rain Light Rain
5:32 AM 46.9 °F - 43.0 °F 86% 29.60 in 10.0 mi WSW 13.8 mph 25.3 mph 0.00 in   Overcast
5:53 AM 46.0 °F 40.6 °F 42.1 °F 86% 29.57 in 10.0 mi WSW 11.5 mph - 0.00 in   Overcast
6:53 AM 45.0 °F 37.6 °F 42.1 °F 90% 29.60 in 8.0 mi West 17.3 mph 23.0 mph 0.00 in Rain Light Rain
7:24 AM 42.1 °F 34.9 °F 37.9 °F 85% 29.65 in 10.0 mi West 13.8 mph - 0.03 in   Overcast
7:53 AM 42.1 °F 34.5 °F 36.0 °F 79% 29.63 in 10.0 mi West 15.0 mph 25.3 mph 0.03 in   Overcast
8:42 AM 39.9 °F 31.1 °F 34.0 °F 79% 29.71 in 10.0 mi West 17.3 mph 26.5 mph N/A   Mostly Cloudy
8:53 AM 39.9 °F 30.8 °F 34.0 °F 79% 29.69 in 10.0 mi West 18.4 mph 24.2 mph N/A   Overcast
9:53 AM 35.6 °F 26.6 °F 30.2 °F 81% 29.77 in 9.0 mi WNW 13.8 mph 27.6 mph N/A   Overcast
10:28 AM 37.0 °F 26.4 °F 28.0 °F 70% 29.80 in 10.0 mi West 20.7 mph 26.5 mph 0.00 in   Overcast
10:53 AM 36.0 °F 24.7 °F 26.1 °F 67% 29.80 in 10.0 mi West 21.9 mph 28.8 mph 0.00 in   Overcast
11:53 AM 33.1 °F 20.1 °F 24.1 °F 70% 29.86 in 9.0 mi West 25.3 mph 34.5 mph 0.00 in Snow Light Snow
12:34 PM 33.1 °F 20.9 °F 23.0 °F 66% 29.90 in 10.0 mi West 21.9 mph 32.2 mph 0.00 in   Overcast
12:41 PM 34.0 °F 23.8 °F 24.1 °F 67% 29.91 in 10.0 mi West 16.1 mph 29.9 mph 0.00 in   Overcast
12:53 PM 32.0 °F 18.6 °F 23.0 °F 69% 29.90 in 10.0 mi West 25.3 mph 32.2 mph 0.00 in   Overcast
1:53 PM 30.0 °F 18.3 °F 21.9 °F 72% 29.95 in 9.0 mi West 17.3 mph - 0.00 in Snow Light Snow
2:53 PM 28.4 °F 16.6 °F 19.4 °F 69% 30.01 in 3.0 mi West 16.1 mph - N/A Snow Light Snow
3:53 PM 28.4 °F 17.0 °F 19.4 °F 69% 30.05 in 3.0 mi West 15.0 mph - N/A Snow Light Snow
4:38 PM 28.0 °F 18.1 °F 19.0 °F 69% 30.07 in 7.0 mi West 11.5 mph - 0.00 in Snow Light Snow
4:53 PM 28.0 °F 18.6 °F 19.0 °F 69% 30.07 in 9.0 mi WNW 10.4 mph - 0.00 in Snow Light Snow
5:53 PM 27.0 °F 18.0 °F 18.0 °F 69% 30.10 in 10.0 mi West 9.2 mph - 0.00 in   Mostly Cloudy
6:53 PM 27.0 °F 19.5 °F 17.1 °F 66% 30.13 in 10.0 mi WNW 6.9 mph - N/A   Overcast
7:53 PM 27.0 °F 16.1 °F 16.0 °F 63% 30.16 in 10.0 mi West 12.7 mph - N/A   Overcast
8:53 PM 26.6 °F 16.8 °F 15.8 °F 64% 30.18 in 10.0 mi WNW 10.4 mph - N/A   Overcast
9:53 PM 26.1 °F 18.4 °F 16.0 °F 66% 30.21 in 10.0 mi WNW 6.9 mph - N/A   Overcast
10:23 PM 26.6 °F 17.5 °F 15.8 °F 64% 30.20 in 10.0 mi NW 9.2 mph - N/A   Overcast
10:53 PM 26.1 °F 16.2 °F 16.0 °F 66% 30.21 in 10.0 mi NW 10.4 mph - N/A   Overcast
11:53 PM 26.1 °F 18.4 °F 16.0 °F 66% 30.24 in 10.0 mi NW 6.9 mph - N/A   Overcast